User: anonymous   Login
Location: Carrizalito
(10.3833°N, 67.0217°W)
Time: 08:34:16
(UTC+00:00)
Language:

Cosmos 2266 Rocket - Orbit

View from above orbital plane
View from above orbital plane
View from above satellite
View from above satellite

Ground track
Ground track

The orbit data is extracted from the following two-line orbital elements,

1 22889U 93070B   22139.47547379  .00000113  00000-0  96748-4 0  9994
2 22889  82.9475  60.4634 0048697 230.5013 129.1834 13.77967764435149
Epoch (UTC): 19 May 2022 11:24:40
Eccentricity: 0.0048697
inclination: 82.9475°
perigee height: 935 km
apogee height: 1007 km
right ascension of ascending node: 60.4634°
argument of perigee: 230.5013°
revolutions per day: 13.77967764
mean anomaly at epoch: 129.1834°
orbit number at epoch: 43514

The dashed part of the orbit path shows where the satellite is in the earth's shadow,  

DLR